Weather in Pol-Uspen'ye

Russia / Oryol Oblast     52°39′39″N   37°47′14″E
В апреле 2022 года жителям России запретили посещать сайт meteo.paraplan.net по решению Генеральной прокуратуры. Аудитория сайта уменьшилась в 10 раз. Владельцы сайта не видят смысла в поддержке погодного сервера в таких условиях. Сайт будет закрыт в октябре.
temp.,
°C
wind,
m/s
gust,
m/s
humid.,
%
clouds,
%
prec.,
mm/h
press.,
hPa
HPBL,
m
30 september, fri
fri3000:00+10sse3485100 0.0 101550
03:00+10sse3693100 0.0 1016106
06:00+11sse3797100 0.0 1016166
09:00+13s5989100 0.0 1016317
12:00+13s4994100 1.8 1016343
15:00+13sse41094100 2.8 1017317
18:00+13sse379415 0.4 1016132
21:00+13sse339699 4.1 101743
1 october, sat
sat100:00+13ssw3895100 0.9 1017179
03:00+13ssw3394100 2.6 101669
06:00+13s3496100 0.0 1016101
09:00+13s2399100 2.2 1016114
12:00+17s568553 0.6 1015492
15:00+20sw587497 0.9 1013923
18:00+16ssw41187100 1.1 1012220
21:00+15wsw61290100 3.0 1012597
2 october, sun
sun200:00+13wsw41087100 0.0 1012552
03:00+11wsw369564 0.0 1012188
06:00+10wsw239682 0.0 101265
09:00+12ssw2391100 0.1 1011181
12:00+13se339198 1.3 1010270
15:00+16ese4782100 1.5 1007607
18:00+15ese5991100 0.4 1004294
21:00+14se3897100 5.5 1002280
3 october, mon
mon300:00+14sse51397100 7.1 999799
03:00+14se71495100 9.4 996854
06:00+14sse71297100 4.9 994708
09:00+10wsw5795100 13.9 996440
12:00+9wsw7990100 0.6 999918
15:00+9sw6987100 0.7 1003969
18:00+8sw61090100 0.3 1005737
21:00+7sw6891100 0.9 1008921
4 october, tue
tue400:00+7ssw5119194 0.1 1009485
03:00+6ssw4109323 0.1 1011297
06:00+6ssw49965 0.0 1012264
09:00+8ssw6108710 0.0 1014483
12:00+11ssw687574 0.2 10141018
15:00+12ssw587483 0.7 1015923
18:00+9ssw348586 0.3 101652
21:00+8s389041 0.3 1017180